Tracking 19832 objects as of 24-Aug-2019
HD Live streaming from Space Station
objects crossing your sky now

FLOCK 4A 15

Track FLOCK 4A 15 now!
10-day predictions
FLOCK 4A 15 is classified as:


NORAD ID: 44100
Int'l Code: 2019-018Y
Perigee: 496.7 km
Apogee: 514.8 km
Inclination: 97.5 °
Period: 94.6 minutes
Semi major axis: 6876 km
RCS: Unknown
Launch date: April 1, 2019
Source: United States (US)
Launch site: SRIHARIKOTA (SRI)
aabbcc
Your satellite tracking list
Your tracking list is empty




NASA's NSSDC Master Catalog

Two Line Element Set (TLE):
1 44100U 19018Y   19236.80704365  .00000473  00000-0  23500-4 0  9990
2 44100  97.4515 296.1939 0013139 141.1106 219.1078 15.22400189 22129
Source of the keplerian elements: AFSPC